Torna al catalogo

DELTA 1 DEB

AttivoPO
NORAD 21934·DEBRIS·🇺🇸 United States

Lanciato Jun 12, 1975 da Vandenberg Space Force Base

Loading…

Prossimi Passaggi (prossime 24 ore)

TLE

AggiornatoSource: Space-Track

Epoca: Sep 14, 2026, 03:15 UTC

1 21934U 75052JU  26257.13563959  .00000118  00000-0  46615-3 0  9996
2 21934  99.6596 134.1642 0291909 171.0343 343.8209 12.93115421655032

Traccia DELTA 1 DEB in tempo reale con AllMySat

Download on the App Store